This demonstration page uses our WeatherBlox Daily Observations layout. Learn more.

Left ArrowRight Arrow

Hourly Observations for December 30, 2020

Temp ( °F °C ) Dew Point ( °F °C ) Humidity (%) Winds ( mph kmh ) Pressure ( in mb ) Visibility ( mi km ) Precip ( " mm )
12:06 am 00:06 Mostly Clear 30 -1 27 -3 86 86 NNW 21 33 30.12 1020 10 16 0.00 0.00
12:56 am 00:56 Clear 26 -3.3 23 -5 88 88 NW 13 20 30.11 1020 10 16 0.00 0.00
1:56 am 01:56 Clear 24 -4.4 20 -6.7 84 84 NW 13 20 30.12 1020 10 16 0.00 0.00
2:56 am 02:56 Clear 21 -6.1 17 -8.3 85 85 NW 14 22 30.13 1020 10 16 0.00 0.00
3:56 am 03:56 Clear 20 -6.7 16 -8.9 85 85 NW 10 17 30.13 1020 10 16 0.00 0.00
4:56 am 04:56 Clear 19 -7.2 15 -9.4 84 84 W 10 17 30.13 1020 10 16 0.00 0.00
5:56 am 05:56 Clear 13 -10.6 10 -12.2 88 88 SW 9 15 30.16 1021 10 16 0.00 0.00
6:56 am 06:56 Clear 13 -10.6 10 -12.2 88 88 SW 8 13 30.19 1022 10 16 0.00 0.00
7:56 am 07:56 Clear 12 -11.1 9 -12.8 87 87 SW 9 15 30.21 1023 10 16 0.00 0.00
8:56 am 08:56 Sunny 13 -10.6 9 -12.8 84 84 SW 12 19 30.23 1024 10 16 0.00 0.00
9:56 am 09:56 Sunny 19 -7.2 12 -11.1 74 74 SW 8 13 30.24 1024 10 16 0.00 0.00
10:56 am 10:56 Sunny 22 -5.6 15 -9.4 75 75 SW 10 17 30.26 1025 10 16 0.00 0.00
11:56 am 11:56 Sunny 26 -3.3 17 -8.3 69 69 SW 10 17 30.24 1024 10 16 0.00 0.00
12:56 pm 12:56 Sunny 29 -1.7 19 -7.2 66 66 WSW 9 15 30.22 1023 10 16 0.00 0.00
1:56 pm 13:56 Sunny 31 -0.6 20 -6.7 64 64 W 10 17 30.21 1023 10 16 0.00 0.00
2:56 pm 14:56 Sunny 30 -1.1 18 -7.8 61 61 W 10 17 30.21 1023 10 16 0.00 0.00
3:56 pm 15:56 Sunny 32 0 22 -5.6 66 66 SW 8 13 30.21 1023 10 16 0.00 0.00
4:56 pm 16:56 Sunny 26 -3.3 20 -6.7 78 78 SSW 8 13 30.21 1023 10 16 0.00 0.00
5:56 pm 17:56 Clear 22 -5.6 18 -7.8 85 85 SSW 8 13 30.22 1024 10 16 0.00 0.00
6:56 pm 18:56 Clear 20 -6.7 16 -8.9 85 85 SW 6 9 30.22 1023 10 16 0.00 0.00
7:56 pm 19:56 Clear 14 -10 11 -11.7 88 88 SSW 5 7 30.23 1024 10 16 0.00 0.00
8:56 pm 20:56 Clear 16 -8.9 13 -10.6 88 88 SW 7 11 30.21 1023 10 16 0.00 0.00
9:56 pm 21:56 Clear 15 -9.4 13 -10.6 91 91 SSW 8 13 30.20 1023 10 16 0.00 0.00
10:56 pm 22:56 Clear 14 -10 12 -11.1 92 92 SSW 7 11 30.19 1022 10 16 0.00 0.00
11:56 pm 23:56 Clear 14 -10 12 -11.1 92 92 SW 7 11 30.19 1022 10 16 0.00 0.00

Powered by AerisWeather